When you browse on this site, cookies collect data to enhance your experience and personalize the content and advertising you see.
Visit our Privacy Policy to learn more. By continuing to use the site, you agree to this use of cookies and data.
  • In Spain
  • List of Countries
  • For 7 days
  • Water Temperature
  • Weather Map
  • Weather Widgets
  • user-avatar
    Login

    Hourly Weather Illapel

    Today, 4 June, Thursday

    Time Temperature Precipitation Wind Pressure Humidity
    00:00 +9°C° 0 mm 1 mps 726 mmHg 68%
    01:00 +9°C° 0 mm 1 mps 726 mmHg 63%
    02:00 +9°C° 0 mm 1 mps 726 mmHg 62%
    03:00 +9°C° 0 mm 1 mps 726 mmHg 60%
    04:00 +9°C° 0 mm 1 mps 725 mmHg 59%
    05:00 +9°C° 0 mm 1 mps 726 mmHg 58%
    06:00 +9°C° 0 mm 1 mps 726 mmHg 56%
    07:00 +9°C° 0 mm 1 mps 726 mmHg 55%
    08:00 +11°C° 0 mm 1 mps 726 mmHg 50%
    09:00 +13°C° 0 mm 1 mps 726 mmHg 45%
    10:00 +14°C° 0 mm 0 mps 726 mmHg 40%
    11:00 +15°C° 0 mm 1 mps 726 mmHg 40%
    12:00 +15°C° 0 mm 2 mps 726 mmHg 40%
    13:00 +16°C° 0 mm 2 mps 725 mmHg 40%
    14:00 +15°C° 0 mm 2 mps 725 mmHg 44%
    15:00 +15°C° 0 mm 2 mps 726 mmHg 48%
    16:00 +14°C° 0 mm 2 mps 726 mmHg 52%
    17:00 +13°C° 0 mm 1 mps 726 mmHg 59%
    18:00 +12°C° 0 mm 1 mps 726 mmHg 66%
    19:00 +10°C° 0 mm 0 mps 726 mmHg 73%
    20:00 +10°C° 0 mm 0 mps 726 mmHg 73%
    21:00 +10°C° 0 mm 0 mps 727 mmHg 73%
    22:00 +9°C° 0 mm 0 mps 727 mmHg 73%
    23:00 +9°C° 0 mm 0 mps 727 mmHg 72%

    Tomorrow, 5 June, Friday

    Time Temperature Precipitation Wind Pressure Humidity
    00:00 +9°C° 0 mm 0 mps 727 mmHg 70%
    01:00 +9°C° 0 mm 0 mps 727 mmHg 69%
    02:00 +8°C° 0 mm 0 mps 727 mmHg 68%
    03:00 +8°C° 0 mm 0 mps 726 mmHg 68%
    04:00 +8°C° 0 mm 0 mps 726 mmHg 68%
    05:00 +9°C° 0 mm 1 mps 726 mmHg 65%
    06:00 +9°C° 0 mm 1 mps 726 mmHg 63%
    07:00 +9°C° 0 mm 1 mps 726 mmHg 60%
    08:00 +12°C° 0 mm 1 mps 726 mmHg 52%
    09:00 +14°C° 0 mm 1 mps 726 mmHg 45%
    10:00 +16°C° 0 mm 1 mps 726 mmHg 37%
    11:00 +18°C° 0 mm 1 mps 726 mmHg 37%
    12:00 +18°C° 0 mm 1 mps 726 mmHg 37%
    13:00 +19°C° 0 mm 1 mps 725 mmHg 37%
    14:00 +19°C° 0 mm 1 mps 725 mmHg 38%
    15:00 +19°C° 0 mm 1 mps 725 mmHg 40%
    16:00 +19°C° 0 mm 1 mps 725 mmHg 42%
    17:00 +16°C° 0 mm 1 mps 725 mmHg 46%
    18:00 +15°C° 0 mm 1 mps 725 mmHg 51%
    19:00 +14°C° 0 mm 1 mps 725 mmHg 55%
    20:00 +14°C° 0 mm 1 mps 725 mmHg 52%
    21:00 +14°C° 0 mm 1 mps 725 mmHg 48%
    22:00 +14°C° 0 mm 1 mps 724 mmHg 45%
    23:00 +13°C° 0 mm 1 mps 724 mmHg 43%

    Day after tomorrow, 6 June, Saturday

    Time Temperature Precipitation Wind Pressure Humidity
    00:00 +13°C° 0 mm 1 mps 724 mmHg 42%
    01:00 +12°C° 0 mm 1 mps 723 mmHg 41%
    02:00 +11°C° 0 mm 0 mps 723 mmHg 43%
    03:00 +11°C° 0 mm 0 mps 723 mmHg 44%
    04:00 +10°C° 0 mm 0 mps 723 mmHg 46%
    05:00 +10°C° 0 mm 0 mps 723 mmHg 46%
    06:00 +11°C° 0 mm 1 mps 723 mmHg 47%
    07:00 +11°C° 0 mm 1 mps 724 mmHg 47%
    08:00 +14°C° 0 mm 1 mps 724 mmHg 43%
    09:00 +15°C° 0 mm 0 mps 725 mmHg 38%
    10:00 +17°C° 0 mm 0 mps 725 mmHg 34%
    11:00 +20°C° 0 mm 1 mps 725 mmHg 35%
    12:00 +20°C° 0 mm 2 mps 725 mmHg 36%
    13:00 +20°C° 0 mm 2 mps 725 mmHg 37%
    14:00 +19°C° 0 mm 2 mps 724 mmHg 45%
    15:00 +18°C° 0 mm 2 mps 724 mmHg 52%
    16:00 +17°C° 0 mm 2 mps 724 mmHg 60%
    17:00 +15°C° 0 mm 1 mps 724 mmHg 65%
    18:00 +14°C° 0 mm 1 mps 724 mmHg 70%
    19:00 +13°C° 0 mm 1 mps 724 mmHg 75%
    20:00 +13°C° 0 mm 1 mps 724 mmHg 72%
    21:00 +12°C° 0 mm 0 mps 724 mmHg 69%
    22:00 +12°C° 0 mm 0 mps 723 mmHg 66%
    23:00 +12°C° 0 mm 1 mps 723 mmHg 64%

    7 June, Sunday

    Time Temperature Precipitation Wind Pressure Humidity
    00:00 +12°C° 0 mm 1 mps 723 mmHg 62%
    01:00 +12°C° 0 mm 1 mps 723 mmHg 60%
    02:00 +11°C° 0 mm 1 mps 723 mmHg 60%
    03:00 +10°C° 0 mm 0 mps 723 mmHg 61%
    04:00 +10°C° 0 mm 0 mps 723 mmHg 61%
    05:00 +9°C° 0 mm 0 mps 723 mmHg 64%
    06:00 +10°C° 0 mm 1 mps 724 mmHg 67%
    07:00 +10°C° 0 mm 1 mps 724 mmHg 69%
    08:00 +12°C° 0 mm 1 mps 724 mmHg 66%
    09:00 +13°C° 0 mm 1 mps 725 mmHg 63%
    10:00 +15°C° 0 mm 1 mps 725 mmHg 60%
    11:00 +16°C° 0 mm 1 mps 725 mmHg 55%
    12:00 +18°C° 0 mm 1 mps 725 mmHg 49%
    13:00 +18°C° 0 mm 2 mps 725 mmHg 43%
    14:00 +17°C° 0 mm 2 mps 725 mmHg 46%
    15:00 +16°C° 0 mm 2 mps 726 mmHg 49%
    16:00 +16°C° 0 mm 1 mps 726 mmHg 51%
    17:00 +15°C° 0 mm 1 mps 726 mmHg 56%
    18:00 +14°C° 0 mm 1 mps 726 mmHg 60%
    19:00 +11°C° 0 mm 0 mps 727 mmHg 64%
    20:00 +11°C° 0 mm 0 mps 727 mmHg 64%
    21:00 +11°C° 0 mm 0 mps 727 mmHg 64%
    22:00 +11°C° 0 mm 0 mps 727 mmHg 64%
    23:00 +10°C° 0 mm 0 mps 727 mmHg 63%

    8 June, Monday

    Time Temperature Precipitation Wind Pressure Humidity
    00:00 +11°C° 0 mm 1 mps 727 mmHg 62%
    01:00 +11°C° 0 mm 1 mps 727 mmHg 62%
    02:00 +11°C° 0 mm 1 mps 727 mmHg 61%
    03:00 +11°C° 0 mm 1 mps 727 mmHg 61%
    04:00 +10°C° 0 mm 0 mps 726 mmHg 60%
    05:00 +10°C° 0 mm 0 mps 726 mmHg 58%
    06:00 +10°C° 0 mm 0 mps 726 mmHg 57%
    07:00 +10°C° 0 mm 0 mps 726 mmHg 55%
    08:00 +13°C° 0 mm 1 mps 727 mmHg 49%
    09:00 +15°C° 0 mm 1 mps 727 mmHg 42%
    10:00 +18°C° 0 mm 1 mps 727 mmHg 36%
    11:00 +19°C° 0 mm 1 mps 726 mmHg 34%
    12:00 +19°C° 0 mm 1 mps 726 mmHg 32%
    13:00 +19°C° 0 mm 2 mps 726 mmHg 30%
    14:00 +19°C° 0 mm 2 mps 726 mmHg 33%
    15:00 +18°C° 0 mm 2 mps 725 mmHg 36%
    16:00 +19°C° 0 mm 1 mps 725 mmHg 38%
    17:00 +16°C° 0 mm 1 mps 725 mmHg 43%
    18:00 +15°C° 0 mm 1 mps 725 mmHg 47%
    19:00 +14°C° 0 mm 1 mps 725 mmHg 52%
    20:00 +13°C° 0 mm 1 mps 725 mmHg 52%
    21:00 +13°C° 0 mm 1 mps 725 mmHg 53%
    22:00 +13°C° 0 mm 1 mps 725 mmHg 53%
    23:00 +12°C° 0 mm 1 mps 725 mmHg 54%

    9 June, Tuesday

    Time Temperature Precipitation Wind Pressure Humidity
    00:00 +12°C° 0 mm 1 mps 724 mmHg 55%
    01:00 +12°C° 0 mm 1 mps 724 mmHg 56%
    02:00 +11°C° 0 mm 1 mps 724 mmHg 55%
    03:00 +11°C° 0 mm 1 mps 723 mmHg 55%
    04:00 +11°C° 0 mm 1 mps 723 mmHg 55%
    05:00 +10°C° 0 mm 0 mps 723 mmHg 56%
    06:00 +9°C° 0 mm 0 mps 723 mmHg 57%
    07:00 +9°C° 0 mm 0 mps 723 mmHg 58%
    08:00 +12°C° 0 mm 1 mps 723 mmHg 50%
    09:00 +15°C° 0 mm 1 mps 723 mmHg 42%
    10:00 +18°C° 0 mm 1 mps 724 mmHg 35%
    11:00 +17°C° 0 mm 2 mps 723 mmHg 35%
    12:00 +18°C° 0 mm 2 mps 723 mmHg 36%
    13:00 +18°C° 0 mm 2 mps 723 mmHg 37%
    14:00 +18°C° 0 mm 2 mps 723 mmHg 42%
    15:00 +17°C° 0 mm 2 mps 723 mmHg 47%
    16:00 +16°C° 0 mm 2 mps 723 mmHg 51%
    17:00 +15°C° 0 mm 2 mps 723 mmHg 60%
    18:00 +13°C° 0 mm 1 mps 724 mmHg 69%
    19:00 +12°C° 0 mm 1 mps 724 mmHg 78%
    20:00 +12°C° 0 mm 1 mps 724 mmHg 79%
    21:00 +11°C° 0 mm 1 mps 724 mmHg 80%
    22:00 +11°C° 0 mm 1 mps 724 mmHg 82%
    23:00 +10°C° 0 mm 1 mps 724 mmHg 83%
    Show more